Location: Eaton
(41.3139°N, 82.0207°W)
Time: 02:11:03
(UTC+00:00)

SL-16 R/B - Pass Details

Date: 17 June 2021
Orbit: 842 x 847 km, 71.0° (Epoch: 02 August)

Event Time Altitude Azimuth Distance (km) Brightness Sun altitude
Exits shadow 04:26:07 17° 93° (E) 2,028 4.0 -23.7°
Drops below altitude 10° 04:29:10 10° 60° (ENE) 2,468 4.8 -23.8°
Sets 04:32:27 0° 41° (NE) 3,408 5.8 -24.0°
